[[{"header":{"parameterUnit":"m.s-1","parameterCategory":1,"la1":30.2991,"la2":30.254,"lo1":-89.0895,"lo2":-89.0444,"dy":0.0017,"dx":0.0017,"nx":28,"ny":28,"refTime":"2023-10-18T21:00:00:Z","depth":0,"parameterNumber":2,"parameterNumberName":"U-component_of_WINDS"},"data":[0,0,0,0,0,0,0,0,0,0,0,0,0,0,0,0,0,0,0,0,0,0,0,0,0,0,0,0,0,0,0,0,0,0,0,0,0,0,0,0,0,0,0,0,0,0,0,0,0,0,0,0,0,0,0,0,0,0,4.0772,4.0774,0,4.0914,4.0916,4.0917,4.0865,4.0862,4.0859,4.0856,4.1003,4.101,4.1017,0,0,0,0,0,0,0,0,0,0,0,0,0,4.0456,4.0462,4.0772,4.0774,4.0775,4.0914,4.0916,4.0918,4.0866,4.0862,4.0858,4.0854,4.1001,4.1009,4.1017,0,0,0,0,0,0,0,0,0,0,0,0,0,4.0595,4.0464,4.0772,4.0766,4.0767,4.0913,4.0916,4.0918,4.0866,4.0862,4.0857,4.0852,4.0998,4.1008,4.1019,4.1179,0,0,4.105,4.1055,0,0,0,0,0,0,0,0,4.0587,4.0607,4.0765,4.0767,4.0768,4.0867,4.0858,4.1006,4.0868,4.0829,4.0856,4.085,4.0962,4.0975,4.1012,4.1186,4.1193,4.1051,4.1058,4.1062,4.1065,0,0,0,0,0,0,0,4.0578,4.06,4.0828,4.0768,4.0769,4.0757,4.0771,4.0886,4.0921,4.0832,4.0828,4.0846,4.0962,4.1002,4.1015,4.1195,4.1051,4.106,4.1067,4.1071,4.1504,4.1509,0,0,0,0,0,0,4.0567,4.0593,4.0824,4.0832,4.0664,4.0766,4.0782,4.084,4.0919,4.0927,4.085,4.0843,4.0987,4.1003,4.102,4.1211,4.1062,4.1072,4.1078,4.1498,4.1505,4.1511,0,0,0,0,0,0,4.0561,4.0589,4.0818,4.0712,4.074,4.0777,4.0842,4.0845,4.0886,4.0933,4.0939,4.0885,4.0984,4.1006,4.1139,4.1215,4.1076,4.1086,4.1492,4.15,4.1508,4.1594,0,0,0,0,0,0,4.0552,4.0586,4.0648,4.0713,4.0746,4.0935,4.0847,4.0852,4.0904,4.0896,4.0967,4.0975,4.0982,4.1124,4.1149,4.1227,4.1094,4.1486,4.1496,4.1505,4.1585,4.1604,4.1621,0,0,0,0,0,4.0541,4.0668,4.0651,4.068,4.0823,4.0939,4.0958,4.0963,4.091,4.0972,4.1001,4.0972,4.1203,4.1138,4.1166,4.1248,4.1481,4.1493,4.1504,4.1577,4.1601,4.1621,0,0,0,0,0,0,4.0612,4.0677,4.0659,4.0811,4.087,4.093,4.1008,4.0988,4.1064,4.1053,4.1057,4.1074,4.121,4.1243,4.1169,4.1406,4.1334,4.1352,4.1379,4.1402,4.142,4.1408,4.1103,0,0,0,0,0,4.0645,4.0734,4.0785,4.0915,4.0945,4.0972,4.1022,4.1021,4.1082,4.1107,4.1147,4.1208,4.1293,4.135,4.1432,4.159,4.1603,4.166,4.1678,4.1692,4.1707,4.179,4.1815,4.1549,4.1549,4.1549,0,0,4.0716,4.0762,4.0817,4.093,4.0975,4.1066,4.0993,4.1093,4.116,4.1122,4.1249,4.1281,4.1349,4.1494,4.156,4.1526,4.1784,4.1708,4.1719,4.1726,4.1805,4.183,4.1852,4.1558,4.1556,4.1555,0,0,4.0888,4.0933,4.1044,4.109,4.1159,4.1176,4.1202,4.1265,4.1284,4.1412,4.1384,4.1464,4.1613,4.1662,4.1706,4.1894,4.1869,4.1921,4.2015,4.2095,4.2116,4.2135,4.2199,4.2223,4.1937,4.1937,4.1937,0,4.0967,4.1102,4.1104,4.1205,4.1254,4.1223,4.1334,4.138,4.1472,4.1507,4.1467,4.165,4.1694,4.1849,4.1894,4.1933,4.1961,4.1912,4.2113,4.2132,4.2149,4.221,4.2235,4.1942,4.1942,4.1941,4.1941,0,4.1193,4.1287,4.1368,4.1456,4.1515,4.1621,4.1639,4.1698,4.1691,4.1712,4.184,4.1892,4.1982,4.2019,4.2015,4.2173,4.2148,4.2111,4.2038,4.218,4.2237,4.2261,4.195,4.1948,4.1947,4.1945,0,0,4.1415,4.1501,4.1531,4.1569,4.1641,4.1714,4.1818,4.1905,4.1954,4.2019,4.2105,4.223,4.2194,4.2245,4.2245,4.2316,4.2458,4.2269,4.2271,4.23,4.2632,4.2658,4.2685,4.2443,4.2447,4.2451,4.2625,0,4.1592,4.1773,4.1776,4.1942,4.2027,4.1998,4.2088,4.2142,4.2164,4.2239,4.2264,4.2351,4.2299,4.2329,4.2398,4.2426,4.2525,4.2414,4.2521,4.2525,4.2502,4.2716,4.2745,4.2907,4.2648,4.2652,4.2655,0,4.1822,4.1891,4.2065,4.2122,4.2158,4.2239,4.2317,4.239,4.245,4.2461,4.2515,4.2504,4.2609,4.2534,4.2678,4.2602,4.2646,4.2667,4.2673,4.2682,4.2597,4.2728,4.2959,4.2982,4.2691,4.2688,4.2686,0,4.1963,4.21,4.2221,4.2255,4.2325,4.2382,4.2414,4.247,4.252,4.2589,4.2622,4.2703,4.2746,4.2809,4.2819,4.2765,4.2962,4.2889,4.2973,4.2972,4.3014,4.3011,4.3253,4.3047,4.3047,4.3046,4.3046,0,4.2158,4.2265,4.2284,4.2358,4.2476,4.248,4.2596,4.2624,4.2673,4.2751,4.2732,4.2806,4.2817,4.2893,4.2903,4.3018,4.3039,4.3049,4.305,4.305,4.3048,4.3077,4.3065,4.3053,4.3051,4.305,4.3049,0,4.2335,4.2352,4.2481,4.2537,4.2553,4.2637,4.2685,4.2755,4.2774,4.2873,4.2897,4.2927,4.3015,4.3032,4.3138,4.3144,4.3281,4.3272,4.326,4.3258,4.3339,4.333,4.3607,4.3642,4.3415,4.3417,4.3419,0,4.2457,4.2538,4.2601,4.2651,4.2685,4.2768,4.2818,4.2825,4.2879,4.2951,4.3013,4.3099,4.3168,4.3311,4.3342,4.3422,4.3413,4.3504,4.3425,4.3421,4.3411,4.3404,4.3411,4.3519,4.3521,4.3523,4.3525,0,4.2671,4.2675,4.2748,4.2825,4.2886,4.2947,4.3005,4.3047,4.3061,4.3122,4.3212,4.3265,4.3371,4.3456,4.3536,4.3568,4.3549,4.355,4.3573,4.3572,4.356,4.3565,4.3298,4.3543,4.3541,4.354,4.3539,4.3538,4.2822,4.2891,4.2945,4.3027,4.3071,4.3125,4.3192,4.3219,4.3293,4.3379,4.3378,4.3476,4.3531,4.3635,4.3673,4.3749,4.372,4.3754,4.3762,4.377,4.3776,4.355,4.3764,4.3763,4.3763,4.3762,4.3762,0,4.3032,4.3065,4.314,4.322,4.3285,4.326,4.3322,4.3377,4.3462,4.3516,4.3583,4.3684,4.3766,4.3803,4.3884,4.3937,4.393,4.3958,4.3953,4.396,4.3799,4.3769,4.3962,4.3962,4.3962,4.3962,4.3962,4.3962,4.3149,4.3263,4.3273,4.3409,4.3441,4.3535,4.3572,4.3621,4.3663,4.3777,4.3844,4.3867,4.3913,4.3996,4.407,4.4078,4.4108,4.4139,4.4144,4.3992,4.3972,4.3952,4.3924,4.4146,4.4147,4.4298,4.4299,4.43]},{"header":{"parameterUnit":"m.s-1","parameterCategory":1,"la1":30.2991,"la2":30.254,"lo1":-89.0895,"lo2":-89.0444,"dy":0.0017,"dx":0.0017,"nx":28,"ny":28,"refTime":"2023-10-18T21:00:00:Z","depth":0,"parameterNumber":3,"parameterNumberName":"V-component_of_WINDS"},"data":[0,0,0,0,0,0,0,0,0,0,0,0,0,0,0,0,0,0,0,0,0,0,0,0,0,0,0,0,0,0,0,0,0,0,0,0,0,0,0,0,0,0,0,0,0,0,0,0,0,0,0,0,0,0,0,0,0,0,2.7732,2.7732,0,2.7804,2.7805,2.7806,2.7786,2.7785,2.7784,2.7782,2.7854,2.7857,2.786,0,0,0,0,0,0,0,0,0,0,0,0,0,2.7571,2.7574,2.7731,2.7732,2.7733,2.7804,2.7805,2.7806,2.7787,2.7785,2.7783,2.7782,2.7853,2.7856,2.786,0,0,0,0,0,0,0,0,0,0,0,0,0,2.7642,2.7575,2.7731,2.7732,2.7733,2.7804,2.7805,2.7806,2.7787,2.7785,2.7783,2.7781,2.7851,2.7856,2.7861,2.7934,0,0,2.7876,2.7878,0,0,0,0,0,0,0,0,2.7638,2.7648,2.7731,2.7732,2.7733,2.7784,2.7775,2.7849,2.7788,2.7766,2.7782,2.778,2.7832,2.7838,2.7857,2.7938,2.7941,2.7876,2.7879,2.7881,2.7883,0,0,0,0,0,0,0,2.7633,2.7645,2.776,2.7732,2.7734,2.7728,2.7735,2.7789,2.781,2.7768,2.7767,2.7776,2.7832,2.7852,2.7858,2.7942,2.7876,2.788,2.7883,2.7885,2.8084,2.8086,0,0,0,0,0,0,2.7628,2.7641,2.7758,2.7762,2.768,2.7732,2.7741,2.777,2.781,2.7814,2.7778,2.7775,2.7845,2.7853,2.7861,2.7948,2.7881,2.7886,2.7889,2.8082,2.8084,2.8087,0,0,0,0,0,0,2.7625,2.7639,2.7755,2.7701,2.7716,2.7737,2.777,2.7773,2.7792,2.7817,2.782,2.7794,2.7843,2.7854,2.7916,2.795,2.7888,2.7892,2.8079,2.8082,2.8086,2.8123,0,0,0,0,0,0,2.762,2.7638,2.7667,2.7702,2.7719,2.781,2.7772,2.7776,2.7801,2.7798,2.7834,2.7837,2.7842,2.7909,2.7921,2.7955,2.7896,2.8076,2.808,2.8085,2.8119,2.8128,2.8135,0,0,0,0,0,2.7615,2.7675,2.7669,2.7683,2.7756,2.7812,2.7822,2.7827,2.7804,2.7833,2.7848,2.7836,2.7944,2.7915,2.7929,2.7965,2.8074,2.8079,2.8084,2.8115,2.8126,2.8135,0,0,0,0,0,0,2.7642,2.7679,2.7673,2.7747,2.7777,2.7809,2.7846,2.7839,2.7875,2.787,2.7875,2.7883,2.7946,2.7962,2.7929,2.8037,2.8005,2.8014,2.8024,2.8035,2.8042,2.8037,2.79,0,0,0,0,0,2.7657,2.7701,2.7731,2.7792,2.7808,2.7824,2.7849,2.7851,2.7881,2.7894,2.7914,2.7943,2.7983,2.801,2.8049,2.8121,2.8127,2.8153,2.8161,2.8167,2.8174,2.8211,2.8222,2.8104,2.8104,2.8104,0,0,2.7688,2.7714,2.7741,2.7799,2.7822,2.7866,2.7835,2.7883,2.7915,2.7901,2.796,2.7976,2.8009,2.8076,2.8106,2.8091,2.8208,2.8174,2.8179,2.8182,2.8217,2.8229,2.8238,2.8108,2.8107,2.8107,0,0,2.7766,2.7791,2.7844,2.7868,2.7904,2.7914,2.7927,2.796,2.797,2.803,2.802,2.8057,2.8127,2.815,2.8171,2.8256,2.8245,2.8268,2.831,2.8346,2.8355,2.8363,2.8391,2.8402,2.8275,2.8275,2.8275,0,2.78,2.7867,2.7872,2.7921,2.7946,2.7935,2.7988,2.801,2.8057,2.8073,2.8056,2.8142,2.8163,2.8234,2.8255,2.8273,2.8286,2.8264,2.8353,2.8362,2.8369,2.8396,2.8407,2.8278,2.8277,2.8277,2.8277,0,2.7905,2.7951,2.799,2.8035,2.8064,2.8115,2.8126,2.8154,2.8153,2.8164,2.8224,2.8249,2.8292,2.8309,2.8308,2.8379,2.8368,2.8352,2.832,2.8383,2.8408,2.8419,2.8281,2.828,2.828,2.8279,0,0,2.8004,2.805,2.8064,2.8084,2.8122,2.8157,2.8206,2.8248,2.8271,2.8303,2.8342,2.8401,2.8386,2.8409,2.8411,2.8443,2.8506,2.8422,2.8423,2.8435,2.8583,2.8594,2.8606,2.8499,2.8501,2.8503,2.858,0,2.8084,2.8171,2.8177,2.8255,2.8296,2.8286,2.8328,2.8355,2.8367,2.8402,2.8414,2.8455,2.8433,2.8447,2.8478,2.8491,2.8535,2.8486,2.8534,2.8536,2.8525,2.862,2.8632,2.8704,2.859,2.8591,2.8593,0,2.819,2.8225,2.8307,2.8337,2.8355,2.8393,2.8431,2.8466,2.8495,2.8501,2.8527,2.8523,2.8571,2.8538,2.8602,2.8569,2.8589,2.8598,2.8601,2.8605,2.8567,2.8624,2.8727,2.8737,2.8609,2.8607,2.8606,0,2.8251,2.8319,2.8376,2.8393,2.8431,2.8457,2.8474,2.8501,2.8525,2.8558,2.8573,2.8611,2.8631,2.8659,2.8665,2.8641,2.8729,2.8697,2.8734,2.8733,2.8752,2.8751,2.8857,2.8767,2.8767,2.8767,2.8767,0,2.8339,2.839,2.8404,2.8439,2.8495,2.85,2.8554,2.8568,2.8592,2.8628,2.8622,2.8656,2.8662,2.8697,2.8702,2.8753,2.8763,2.8767,2.8768,2.8767,2.8767,2.878,2.8774,2.877,2.8769,2.8769,2.8768,0,2.8417,2.8429,2.849,2.852,2.8529,2.8568,2.8593,2.8625,2.8636,2.8682,2.8693,2.8708,2.8749,2.8758,2.8806,2.8809,2.8869,2.8866,2.886,2.8859,2.8894,2.889,2.9012,2.9028,2.8929,2.893,2.8931,0,2.8472,2.851,2.8544,2.8568,2.8586,2.8625,2.865,2.8656,2.8681,2.8716,2.8744,2.8784,2.8816,2.8881,2.8895,2.8931,2.8927,2.8968,2.8933,2.893,2.8926,2.8923,2.8926,2.8974,2.8975,2.8976,2.8977,0,2.8567,2.8571,2.8607,2.8645,2.8675,2.8705,2.8733,2.8753,2.8762,2.8791,2.8832,2.8857,2.8906,2.8945,2.898,2.8995,2.8987,2.8988,2.8998,2.8997,2.8991,2.8993,2.8876,2.8984,2.8984,2.8983,2.8983,2.8982,2.8634,2.8667,2.8695,2.8735,2.8757,2.8784,2.8815,2.8829,2.8864,2.8905,2.8906,2.895,2.8976,2.9024,2.9041,2.9074,2.9062,2.9077,2.908,2.9084,2.9086,2.8987,2.9081,2.9081,2.9081,2.9081,2.908,0,2.8728,2.8745,2.8782,2.8822,2.8853,2.8843,2.8873,2.8899,2.8939,2.8965,2.8996,2.9043,2.908,2.9097,2.9133,2.9157,2.9153,2.9166,2.9163,2.9166,2.9096,2.9083,2.9168,2.9167,2.9167,2.9167,2.9167,2.9167,2.878,2.8834,2.8841,2.8905,2.8922,2.8967,2.8984,2.9008,2.9028,2.908,2.9111,2.9123,2.9144,2.9181,2.9214,2.9218,2.9231,2.9245,2.9247,2.9181,2.9172,2.9163,2.9151,2.9248,2.9248,2.9314,2.9314,2.9315]}]]